#timestamp,LO_Frequency,Hit,StdDev 
1632016815.2,286047004.3,N
1632016835.1,286047005.3,N
1632016836.0,286047005.3,N
1632016855.8,286047005.4,N
1632016875.7,286047003.8,N
1632016895.5,286047001.7,N
1632016915.3,286047001.8,N
1632016935.2,286047002.0,N
1632016955.0,286047001.7,N
1632016955.9,286047001.7,N
1632016975.8,286047001.8,N
1632016995.6,286047001.9,N
1632017015.4,286047002.8,N
1632017035.3,286047000.3,N
1632017055.1,286047002.4,N
1632017075.8,286047002.0,N
1632017095.7,286047002.7,N
1632017115.5,286047000.2,N
1632017135.4,286047002.1,N
1632017155.2,286047003.7,N
1632017175.0,286047004.1,N
1632017175.9,286047004.1,N
1632017195.8,286047004.1,N
1632017215.6,286047005.5,Y
1632017235.5,286047000.4,P
1632017255.3,286047000.5,N
1632017275.1,286047000.8,N
1632017295.9,286046999.7,N
1632017315.7,286046998.2,N
1632017335.6,286046998.7,N
1632017355.4,286046998.2,N
1632017375.2,286047000.8,N
1632017395.1,286047002.8,N
1632017396.0,286047002.8,N
1632017415.8,286047001.0,N
1632017435.7,286046998.1,N
1632017455.5,286047001.1,N
1632017475.3,286046996.6,N
1632017495.2,286046998.5,N
1632017515.0,286046999.0,N
1632017515.9,286046999.0,N
1632017535.8,286046999.4,N
1632017555.6,286047001.2,N
1632017575.4,286047000.8,N
1632017595.3,286046998.8,N
1632017615.1,286046999.6,N
1632017635.8,286046995.0,Y
1632017655.7,286046996.9,P
1632017675.5,286046994.9,P
1632017695.4,286046997.5,N
1632017715.2,286046996.6,N
1632017735.0,286046999.4,N
1632017735.9,286046999.4,N
1632017755.8,286046997.4,N
1632017775.6,286046996.9,N
1632017795.5,286046996.7,N
1632017815.3,286046997.6,N
1632017835.1,286046997.4,N
1632017855.9,286046999.6,N
1632017875.7,286046996.5,N
1632017895.6,286046996.6,N
1632017915.4,286046999.4,N
1632017935.2,286046999.5,N
1632017955.1,286046999.2,N
1632017956.0,286046999.2,N
1632017975.8,286046996.7,N
1632017995.7,286046997.5,N
1632018015.5,286046996.7,N
1632018035.3,286046999.1,N
1632018055.2,286046999.4,N
1632018075.9,286046998.9,N
1632018095.7,286046999.1,N
1632018115.6,286046998.8,N
1632018135.4,286046998.1,N
1632018155.3,286047001.0,N
1632018175.1,286046998.1,N
1632018176.0,286046998.1,N
1632018195.8,286046998.4,N
1632018215.7,286046998.2,N
1632018235.5,286047001.0,N
1632018255.4,286047000.2,N
1632018275.2,286047002.8,N
1632018295.0,286047002.5,N
1632018295.9,286047002.5,N
1632018315.8,286047002.8,N
1632018335.6,286046999.7,N
1632018355.5,286047003.9,N
1632018375.3,286047001.9,N
1632018395.1,286047004.3,N
1632018415.9,286047004.1,N
1632018435.7,286047006.0,N
1632018455.5,286047005.0,N
1632018475.4,286047003.0,N
1632018495.2,286047004.8,N
1632018515.1,286047004.7,N
1632018516.0,286047004.7,N
1632018535.8,286047005.6,N
1632018555.6,286047005.0,N
1632018575.5,286047004.6,N
1632018595.3,286047005.7,N
1632018615.2,286047004.8,N
1632018635.9,286047003.0,N
1632018655.7,286047005.4,N
1632018675.6,286047004.4,N
1632018695.4,286047003.0,N
1632018715.2,286047003.2,N
1632018735.1,286047001.9,N
1632018736.0,286047001.9,N
1632018755.8,286047002.6,N
1632018775.7,286047001.5,N
1632018795.5,286047001.5,N
1632018815.3,286047002.4,N
1632018835.2,286047002.0,N
1632018855.0,286047001.2,N
1632018855.9,286047001.2,N
1632018875.8,286046998.1,N
1632018895.6,286046999.7,N
1632018915.4,286047002.2,N
1632018935.3,286047002.7,N
1632018955.1,286047001.4,N
1632018975.8,286047001.9,N
1632018995.7,286047002.8,N
1632019015.5,286047002.7,N
1632019035.4,286047002.3,N
1632019055.2,286047000.2,N
1632019075.0,286047002.7,N
1632019075.9,286047002.7,N
1632019095.8,286047000.2,N
1632019115.6,286047001.9,N
1632019135.4,286047001.9,N
1632019155.3,286046999.9,N
1632019175.1,286047002.6,N
1632019195.9,286047000.1,N
1632019215.7,286046999.7,N
1632019235.5,286047002.4,N
1632019255.4,286046999.7,N
1632019275.2,286047002.5,N
1632019295.1,286047000.7,N
1632019296.0,286047000.7,N
1632019315.8,286047002.8,N
1632019335.6,286047000.9,N
1632019355.5,286047000.0,N
1632019375.3,286046999.8,N
1632019395.1,286047002.0,N
1632019415.9,286047002.6,N
1632019435.7,286047002.2,N
1632019455.6,286047000.2,N
1632019475.4,286047000.1,N
1632019495.2,286046998.7,N
1632019515.1,286046999.5,N
1632019516.0,286046999.5,N
1632019535.8,286046999.5,N
1632019555.6,286046998.5,N
1632019575.5,286047000.3,N
1632019595.3,286047001.2,N
1632019615.2,286046999.4,N
1632019635.0,286046998.4,N
1632019635.9,286046998.4,N
1632019655.7,286046998.1,N
1632019675.6,286047001.0,N
1632019695.4,286046999.2,N
1632019715.3,286046999.0,N
1632019735.1,286046996.5,N
1632019755.8,286046999.5,N
1632019775.7,286046999.0,N
1632019795.5,286046999.1,N
1632019815.4,286046996.9,N
1632019835.2,286046996.5,N
1632019855.0,286047001.2,N
1632019855.9,286047001.2,N
1632019875.8,286046998.8,N
1632019895.6,286046998.9,N
1632019915.5,286046998.8,N
1632019935.3,286047000.9,N
1632019955.1,286047000.9,N
1632019975.9,286046999.1,N
1632019995.7,286047000.7,N
1632020015.6,286046998.4,N
1632020035.4,286046998.2,N
1632020055.2,286046999.9,N
1632020075.1,286047001.1,N
1632020076.0,286047001.1,N
1632020095.8,286046998.9,N
1632020115.6,286047000.7,N
1632020135.5,286046999.1,N
1632020155.3,286046998.6,N
1632020175.2,286046998.2,N
1632020195.9,286046999.4,N
1632020215.7,286046996.5,N
1632020235.6,286046996.6,N
1632020255.4,286046999.3,N
1632020275.2,286046999.0,N
1632020295.1,286046998.8,N
1632020296.0,286046998.8,N
1632020315.8,286046996.8,N
1632020335.7,286046999.0,N
1632020355.5,286046998.2,N
1632020375.3,286046998.9,N
1632020395.2,286046997.4,N
